Time,TemperatureF,DewpointF,PressureIn,WindDirection,WindDirectionDegrees,WindSpeedMPH,WindSpeedGustMPH,Humidity,HourlyPrecipIn,Conditions,Clouds,dailyrainin,SoftwareType,DateUTC
2013-01-13 00:04:00,17.6,3.8,28.53,NNW,328,6.3,6.3,54,0.00,,---,0.00,VWS V14.00,2013-01-13 06:04:00,
2013-01-13 00:09:00,17.2,1.8,28.53,NNW,337,3.1,8.7,50,0.00,,---,0.00,VWS V14.00,2013-01-13 06:09:00,
2013-01-13 00:14:00,17.1,1.2,28.53,NNW,334,6.3,8.1,49,0.00,,---,0.00,VWS V14.00,2013-01-13 06:14:00,
2013-01-13 00:19:00,16.9,0.6,28.53,NNW,337,11.0,11.0,48,0.00,,---,0.00,VWS V14.00,2013-01-13 06:19:00,
2013-01-13 00:25:00,16.7,0.4,28.56,NNW,333,10.5,10.5,48,0.00,,---,0.00,VWS V14.00,2013-01-13 06:25:00,
2013-01-13 00:30:00,16.5,0.7,28.56,NW,313,3.1,3.1,49,0.00,,---,0.00,VWS V14.00,2013-01-13 06:30:00,
2013-01-13 00:35:00,16.3,1.0,28.56,NW,315,3.6,4.0,50,0.00,,---,0.00,VWS V14.00,2013-01-13 06:35:00,
2013-01-13 00:40:00,16.2,0.8,28.53,NW,323,3.6,8.1,50,0.00,,---,0.00,VWS V14.00,2013-01-13 06:40:00,
2013-01-13 00:45:00,16.0,0.6,28.53,NW,307,5.8,7.6,50,0.00,,---,0.00,VWS V14.00,2013-01-13 06:45:00,
2013-01-13 00:50:00,16.0,1.1,28.53,NNW,329,7.6,7.6,51,0.00,,---,0.00,VWS V14.00,2013-01-13 06:50:00,
2013-01-13 00:55:00,15.8,1.3,28.56,NW,304,4.9,7.2,52,0.00,,---,0.00,VWS V14.00,2013-01-13 06:55:00,
2013-01-13 01:00:00,15.6,1.1,28.56,NW,316,2.7,4.0,52,0.00,,---,0.00,VWS V14.00,2013-01-13 07:00:00,
2013-01-13 01:05:00,15.4,1.0,28.56,WNW,288,5.8,5.8,52,0.00,,---,0.00,VWS V14.00,2013-01-13 07:05:00,
2013-01-13 01:10:00,15.3,0.8,28.53,NNW,333,6.3,6.3,52,0.00,,---,0.00,VWS V14.00,2013-01-13 07:10:00,
2013-01-13 01:16:00,15.3,1.2,28.53,NW,311,3.1,6.3,53,0.00,,---,0.00,VWS V14.00,2013-01-13 07:16:00,
2013-01-13 01:21:00,15.1,1.0,28.53,NNW,334,4.0,7.6,53,0.00,,---,0.00,VWS V14.00,2013-01-13 07:21:00,
2013-01-13 01:26:00,15.1,1.0,28.53,NW,312,4.0,7.6,53,0.00,,---,0.00,VWS V14.00,2013-01-13 07:26:00,
2013-01-13 01:31:00,15.1,1.0,28.53,NW,321,5.8,5.8,53,0.00,,---,0.00,VWS V14.00,2013-01-13 07:31:00,
2013-01-13 01:36:00,14.9,0.9,28.53,NW,317,6.3,6.3,53,0.00,,---,0.00,VWS V14.00,2013-01-13 07:36:00,
2013-01-13 01:41:00,14.9,1.3,28.53,NW,312,7.6,7.6,54,0.00,,---,0.00,VWS V14.00,2013-01-13 07:41:00,
2013-01-13 01:46:00,14.9,1.3,28.53,WNW,297,3.1,8.7,54,0.00,,---,0.00,VWS V14.00,2013-01-13 07:46:00,
2013-01-13 01:51:00,14.7,1.1,28.53,NW,318,5.4,9.6,54,0.00,,---,0.00,VWS V14.00,2013-01-13 07:51:00,
2013-01-13 01:56:00,14.5,0.9,28.53,NW,316,8.3,8.3,54,0.00,,---,0.00,VWS V14.00,2013-01-13 07:56:00,
2013-01-13 02:02:00,14.5,0.9,28.53,WNW,302,5.4,8.3,54,0.00,,---,0.00,VWS V14.00,2013-01-13 08:02:00,
2013-01-13 02:07:00,14.5,0.9,28.53,NNW,329,5.4,5.8,54,0.00,,---,0.00,VWS V14.00,2013-01-13 08:07:00,
2013-01-13 02:12:00,14.4,0.8,28.53,NW,308,4.0,7.2,54,0.00,,---,0.00,VWS V14.00,2013-01-13 08:12:00,
2013-01-13 02:17:00,14.4,1.2,28.53,WNW,285,2.7,3.6,55,0.00,,---,0.00,VWS V14.00,2013-01-13 08:17:00,
2013-01-13 02:22:00,14.4,1.2,28.56,NW,320,7.6,7.6,55,0.00,,---,0.00,VWS V14.00,2013-01-13 08:22:00,
2013-01-13 02:27:00,14.4,1.2,28.56,WNW,301,5.8,6.3,55,0.00,,---,0.00,VWS V14.00,2013-01-13 08:27:00,
2013-01-13 02:32:00,14.4,1.2,28.56,NW,319,5.4,5.8,55,0.00,,---,0.00,VWS V14.00,2013-01-13 08:32:00,
2013-01-13 02:37:00,14.4,1.2,28.56,NNW,337,2.7,5.4,55,0.00,,---,0.00,VWS V14.00,2013-01-13 08:37:00,
2013-01-13 02:42:00,14.2,1.4,28.56,NW,326,2.7,4.9,56,0.00,,---,0.00,VWS V14.00,2013-01-13 08:42:00,
2013-01-13 02:47:00,14.2,1.4,28.56,WNW,303,3.1,4.9,56,0.00,,---,0.00,VWS V14.00,2013-01-13 08:47:00,
2013-01-13 02:53:00,14.0,1.6,28.56,NNW,330,4.0,5.4,57,0.00,,---,0.00,VWS V14.00,2013-01-13 08:53:00,
2013-01-13 02:58:00,13.8,1.4,28.56,NW,308,5.8,5.8,57,0.00,,---,0.00,VWS V14.00,2013-01-13 08:58:00,
2013-01-13 03:03:00,13.8,1.4,28.56,NW,319,4.5,4.5,57,0.00,,---,0.00,VWS V14.00,2013-01-13 09:03:00,
2013-01-13 03:08:00,13.8,1.4,28.59,NW,318,3.6,4.0,57,0.00,,---,0.00,VWS V14.00,2013-01-13 09:08:00,
2013-01-13 03:13:00,13.8,1.4,28.59,NW,321,3.6,3.6,57,0.00,,---,0.00,VWS V14.00,2013-01-13 09:13:00,
2013-01-13 03:18:00,13.6,1.2,28.59,NW,306,7.6,7.6,57,0.00,,---,0.00,VWS V14.00,2013-01-13 09:18:00,
2013-01-13 03:23:00,13.6,1.2,28.59,NNW,336,5.4,5.4,57,0.00,,---,0.00,VWS V14.00,2013-01-13 09:23:00,
2013-01-13 03:28:00,13.6,1.2,28.59,NW,310,5.4,7.6,57,0.00,,---,0.00,VWS V14.00,2013-01-13 09:28:00,
2013-01-13 03:33:00,13.5,1.1,28.59,NNW,329,7.6,7.6,57,0.00,,---,0.00,VWS V14.00,2013-01-13 09:33:00,
2013-01-13 03:38:00,13.5,1.1,28.59,NW,311,6.7,7.6,57,0.00,,---,0.00,VWS V14.00,2013-01-13 09:38:00,
2013-01-13 03:43:00,13.5,1.1,28.59,WNW,293,4.5,8.3,57,0.00,,---,0.00,VWS V14.00,2013-01-13 09:43:00,
2013-01-13 03:49:00,13.5,1.1,28.59,WNW,287,5.8,6.3,57,0.00,,---,0.00,VWS V14.00,2013-01-13 09:49:00,
2013-01-13 03:54:00,13.5,1.1,28.59,WNW,290,3.6,5.4,57,0.00,,---,0.00,VWS V14.00,2013-01-13 09:54:00,
2013-01-13 03:59:00,13.5,1.1,28.59,NW,305,8.7,8.7,57,0.00,,---,0.00,VWS V14.00,2013-01-13 09:59:00,
2013-01-13 04:04:00,13.5,1.1,28.59,West,278,6.3,6.3,57,0.00,,---,0.00,VWS V14.00,2013-01-13 10:04:00,
2013-01-13 04:09:00,13.3,0.9,28.59,NW,316,5.8,8.3,57,0.00,,---,0.00,VWS V14.00,2013-01-13 10:09:00,
2013-01-13 04:14:00,13.3,0.9,28.59,NW,322,3.1,3.6,57,0.00,,---,0.00,VWS V14.00,2013-01-13 10:14:00,
2013-01-13 04:19:00,13.1,0.7,28.59,NNW,339,8.1,8.1,57,0.00,,---,0.00,VWS V14.00,2013-01-13 10:19:00,
2013-01-13 04:24:00,12.9,0.6,28.59,NNW,327,2.7,4.9,57,0.00,,---,0.00,VWS V14.00,2013-01-13 10:24:00,
2013-01-13 04:29:00,12.9,0.6,28.59,NW,319,3.1,4.0,57,0.00,,---,0.00,VWS V14.00,2013-01-13 10:29:00,
2013-01-13 04:34:00,12.7,0.4,28.59,NW,325,5.8,6.3,57,0.00,,---,0.00,VWS V14.00,2013-01-13 10:34:00,
2013-01-13 04:40:00,12.7,0.4,28.59,NW,313,5.4,6.3,57,0.00,,---,0.00,VWS V14.00,2013-01-13 10:40:00,
2013-01-13 04:45:00,12.6,0.2,28.59,NW,307,3.6,5.8,57,0.00,,---,0.00,VWS V14.00,2013-01-13 10:45:00,
2013-01-13 04:50:00,12.6,0.2,28.59,WNW,302,4.0,5.8,57,0.00,,---,0.00,VWS V14.00,2013-01-13 10:50:00,
2013-01-13 04:55:00,12.4,0.1,28.56,NW,309,6.3,6.3,57,0.00,,---,0.00,VWS V14.00,2013-01-13 10:55:00,
2013-01-13 05:00:00,12.2,-0.1,28.56,NW,310,5.4,5.4,57,0.00,,---,0.00,VWS V14.00,2013-01-13 11:00:00,
2013-01-13 05:05:00,12.2,-0.1,28.56,NW,317,5.8,5.8,57,0.00,,---,0.00,VWS V14.00,2013-01-13 11:05:00,
2013-01-13 05:10:00,12.2,-0.1,28.59,NW,319,3.6,3.6,57,0.00,,---,0.00,VWS V14.00,2013-01-13 11:10:00,
2013-01-13 05:15:00,12.2,-0.1,28.59,NW,310,4.9,6.3,57,0.00,,---,0.00,VWS V14.00,2013-01-13 11:15:00,
2013-01-13 05:20:00,12.0,-0.3,28.59,NW,317,4.0,5.4,57,0.00,,---,0.00,VWS V14.00,2013-01-13 11:20:00,
2013-01-13 05:26:00,12.0,-0.3,28.59,WNW,295,4.0,4.0,57,0.00,,---,0.00,VWS V14.00,2013-01-13 11:26:00,
2013-01-13 05:30:00,12.0,-0.3,28.59,NW,311,4.0,4.9,57,0.00,,---,0.00,VWS V14.00,2013-01-13 11:30:00,
2013-01-13 05:35:00,11.8,-0.4,28.59,WNW,285,3.1,5.4,57,0.00,,---,0.00,VWS V14.00,2013-01-13 11:35:00,
2013-01-13 05:41:00,11.8,-0.4,28.59,NW,314,2.7,3.1,57,0.00,,---,0.00,VWS V14.00,2013-01-13 11:41:00,
2013-01-13 05:46:00,11.8,-0.4,28.59,NW,323,3.6,3.6,57,0.00,,---,0.00,VWS V14.00,2013-01-13 11:46:00,
2013-01-13 05:51:00,11.8,-0.4,28.59,NW,313,3.1,3.1,57,0.00,,---,0.00,VWS V14.00,2013-01-13 11:51:00,
2013-01-13 05:56:00,11.8,-0.4,28.59,West,260,2.7,2.7,57,0.00,,---,0.00,VWS V14.00,2013-01-13 11:56:00,
2013-01-13 06:01:00,11.8,-0.4,28.59,WSW,256,5.4,5.4,57,0.00,,---,0.00,VWS V14.00,2013-01-13 12:01:00,
2013-01-13 06:06:00,11.7,-0.6,28.59,WNW,285,2.7,4.0,57,0.00,,---,0.00,VWS V14.00,2013-01-13 12:06:00,
2013-01-13 06:11:00,11.7,-0.6,28.61,West,269,0.0,3.1,57,0.00,,---,0.00,VWS V14.00,2013-01-13 12:11:00,
2013-01-13 06:16:00,11.7,-0.6,28.61,NW,315,3.6,3.6,57,0.00,,---,0.00,VWS V14.00,2013-01-13 12:16:00,
2013-01-13 06:21:00,11.7,-0.6,28.61,West,280,4.0,4.0,57,0.00,,---,0.00,VWS V14.00,2013-01-13 12:21:00,
2013-01-13 06:26:00,11.7,-0.6,28.61,WSW,256,2.7,4.0,57,0.00,,---,0.00,VWS V14.00,2013-01-13 12:26:00,
2013-01-13 06:31:00,11.5,-0.8,28.61,West,281,3.6,4.9,57,0.00,,---,0.00,VWS V14.00,2013-01-13 12:31:00,
2013-01-13 06:36:00,11.5,-0.8,28.61,WNW,298,3.1,4.0,57,0.00,,---,0.00,VWS V14.00,2013-01-13 12:36:00,
2013-01-13 06:41:00,11.3,-1.0,28.61,NW,306,3.1,3.1,57,0.00,,---,0.00,VWS V14.00,2013-01-13 12:41:00,
2013-01-13 06:46:00,11.3,-1.0,28.61,NW,305,4.9,4.9,57,0.00,,---,0.00,VWS V14.00,2013-01-13 12:46:00,
2013-01-13 06:52:00,11.3,-1.0,28.61,NW,305,5.4,6.3,57,0.00,,---,0.00,VWS V14.00,2013-01-13 12:52:00,
2013-01-13 06:57:00,11.3,-1.0,28.61,NW,308,3.6,3.6,57,0.00,,---,0.00,VWS V14.00,2013-01-13 12:57:00,
2013-01-13 07:02:00,11.3,-1.0,28.61,NW,305,2.7,5.8,57,0.00,,---,0.00,VWS V14.00,2013-01-13 13:02:00,
2013-01-13 07:07:00,11.3,-1.0,28.61,WNW,301,3.1,4.9,57,0.00,,---,0.00,VWS V14.00,2013-01-13 13:07:00,
2013-01-13 07:12:00,11.3,-1.0,28.61,West,268,2.7,2.7,57,0.00,,---,0.00,VWS V14.00,2013-01-13 13:12:00,
2013-01-13 07:17:00,11.3,-1.0,28.61,West,281,4.0,4.0,57,0.00,,---,0.00,VWS V14.00,2013-01-13 13:17:00,
2013-01-13 07:22:00,11.1,-1.1,28.64,WNW,292,2.7,3.6,57,0.00,,---,0.00,VWS V14.00,2013-01-13 13:22:00,
2013-01-13 07:27:00,11.1,-1.1,28.64,WNW,295,3.1,3.6,57,0.00,,---,0.00,VWS V14.00,2013-01-13 13:27:00,
2013-01-13 07:32:00,11.1,-1.1,28.64,West,281,3.1,4.0,57,0.00,,---,0.00,VWS V14.00,2013-01-13 13:32:00,
2013-01-13 07:37:00,11.1,-1.1,28.64,West,268,2.7,2.7,57,0.00,,---,0.00,VWS V14.00,2013-01-13 13:37:00,
2013-01-13 07:43:00,11.1,-1.1,28.64,WNW,301,2.7,4.0,57,0.00,,---,0.00,VWS V14.00,2013-01-13 13:43:00,
2013-01-13 07:48:00,11.1,-1.1,28.64,NW,306,4.0,5.8,57,0.00,,---,0.00,VWS V14.00,2013-01-13 13:48:00,
2013-01-13 07:53:00,11.1,-1.1,28.64,NW,316,4.0,6.3,57,0.00,,---,0.00,VWS V14.00,2013-01-13 13:53:00,
2013-01-13 07:58:00,10.9,-1.3,28.64,WNW,290,3.6,5.8,57,0.00,,---,0.00,VWS V14.00,2013-01-13 13:58:00,
2013-01-13 08:03:00,10.9,-1.3,28.64,NW,313,3.6,6.3,57,0.00,,---,0.00,VWS V14.00,2013-01-13 14:03:00,
2013-01-13 08:08:00,11.1,-1.1,28.64,WNW,300,2.7,4.0,57,0.00,,---,0.00,VWS V14.00,2013-01-13 14:08:00,
2013-01-13 08:13:00,11.1,-1.1,28.64,NW,304,0.0,0.0,57,0.00,,---,0.00,VWS V14.00,2013-01-13 14:13:00,
2013-01-13 08:18:00,11.1,-1.1,28.64,WNW,283,2.7,4.0,57,0.00,,---,0.00,VWS V14.00,2013-01-13 14:18:00,
2013-01-13 08:23:00,11.3,-1.0,28.64,WNW,288,3.1,3.6,57,0.00,,---,0.00,VWS V14.00,2013-01-13 14:23:00,
2013-01-13 08:28:00,11.3,-1.0,28.64,West,274,6.3,6.3,57,0.00,,---,0.00,VWS V14.00,2013-01-13 14:28:00,
2013-01-13 08:33:00,11.5,-0.8,28.64,NW,305,4.9,4.9,57,0.00,,---,0.00,VWS V14.00,2013-01-13 14:33:00,
2013-01-13 08:39:00,11.7,-0.6,28.64,NW,310,3.1,7.2,57,0.00,,---,0.00,VWS V14.00,2013-01-13 14:39:00,
2013-01-13 08:44:00,11.7,-0.6,28.64,WNW,295,5.8,6.3,57,0.00,,---,0.00,VWS V14.00,2013-01-13 14:44:00,
2013-01-13 08:49:00,11.8,-0.4,28.64,NW,322,4.9,4.9,57,0.00,,---,0.00,VWS V14.00,2013-01-13 14:49:00,
2013-01-13 08:54:00,12.0,-0.3,28.67,NW,324,3.6,3.6,57,0.00,,---,0.00,VWS V14.00,2013-01-13 14:54:00,
2013-01-13 08:59:00,12.4,0.1,28.67,NNW,327,7.6,7.6,57,0.00,,---,0.00,VWS V14.00,2013-01-13 14:59:00,
2013-01-13 09:04:00,12.6,0.2,28.67,WNW,292,5.8,6.3,57,0.00,,---,0.00,VWS V14.00,2013-01-13 15:04:00,
2013-01-13 09:09:00,12.7,0.4,28.67,NNW,330,6.7,7.6,57,0.00,,---,0.00,VWS V14.00,2013-01-13 15:09:00,
2013-01-13 09:14:00,12.9,0.6,28.67,NW,326,6.3,6.3,57,0.00,,---,0.00,VWS V14.00,2013-01-13 15:14:00,
2013-01-13 09:20:00,13.3,0.9,28.67,West,279,3.1,8.7,57,0.00,,---,0.00,VWS V14.00,2013-01-13 15:20:00,
2013-01-13 09:25:00,13.6,1.2,28.67,NNW,327,5.8,5.8,57,0.00,,---,0.00,VWS V14.00,2013-01-13 15:25:00,
2013-01-13 09:30:00,13.8,1.4,28.67,West,267,5.4,5.4,57,0.00,,---,0.00,VWS V14.00,2013-01-13 15:30:00,
2013-01-13 09:35:00,14.2,-0.6,28.67,WNW,284,2.7,4.9,51,0.00,,---,0.00,VWS V14.00,2013-01-13 15:35:00,
2013-01-13 09:40:00,14.5,-0.7,28.67,NW,314,5.8,7.6,50,0.00,,---,0.00,VWS V14.00,2013-01-13 15:40:00,
2013-01-13 09:45:00,14.7,-1.0,28.67,WNW,287,8.1,8.7,49,0.00,,---,0.00,VWS V14.00,2013-01-13 15:45:00,
2013-01-13 09:50:00,14.9,-0.8,28.67,NNW,331,3.6,7.6,49,0.00,,---,0.00,VWS V14.00,2013-01-13 15:50:00,
2013-01-13 09:55:00,15.1,-0.6,28.67,NW,317,8.1,8.1,49,0.00,,---,0.00,VWS V14.00,2013-01-13 15:55:00,
2013-01-13 10:01:00,15.4,-0.3,28.67,NNW,332,5.4,6.3,49,0.00,,---,0.00,VWS V14.00,2013-01-13 16:01:00,
2013-01-13 10:06:00,15.8,-0.4,28.67,NW,311,3.6,6.3,48,0.00,,---,0.00,VWS V14.00,2013-01-13 16:06:00,
2013-01-13 10:11:00,16.2,-0.1,28.67,WNW,299,3.6,3.6,48,0.00,,---,0.00,VWS V14.00,2013-01-13 16:11:00,
2013-01-13 10:16:00,16.7,0.0,28.67,NW,323,5.4,5.4,47,0.00,,---,0.00,VWS V14.00,2013-01-13 16:16:00,
2013-01-13 10:21:00,17.1,0.3,28.70,WNW,295,5.8,5.8,47,0.00,,---,0.00,VWS V14.00,2013-01-13 16:21:00,
2013-01-13 10:26:00,17.4,0.2,28.70,NW,307,7.2,7.2,46,0.00,,---,0.00,VWS V14.00,2013-01-13 16:26:00,
2013-01-13 10:31:00,17.6,0.3,28.70,WNW,292,3.6,3.6,46,0.00,,---,0.00,VWS V14.00,2013-01-13 16:31:00,
2013-01-13 10:36:00,17.8,0.1,28.70,NW,307,4.0,4.0,45,0.00,,---,0.00,VWS V14.00,2013-01-13 16:36:00,
2013-01-13 10:41:00,18.1,0.4,28.70,West,271,3.6,3.6,45,0.00,,---,0.00,VWS V14.00,2013-01-13 16:41:00,
2013-01-13 10:47:00,18.5,0.7,28.70,NW,317,5.4,5.4,45,0.00,,---,0.00,VWS V14.00,2013-01-13 16:47:00,
2013-01-13 10:52:00,18.7,0.9,28.70,NNW,329,6.3,6.3,45,0.00,,---,0.00,VWS V14.00,2013-01-13 16:52:00,
2013-01-13 10:57:00,18.5,0.2,28.70,NW,323,6.3,6.3,44,0.00,,---,0.00,VWS V14.00,2013-01-13 16:57:00,
2013-01-13 11:02:00,18.7,0.4,28.70,NW,317,2.7,2.7,44,0.00,,---,0.00,VWS V14.00,2013-01-13 17:02:00,
2013-01-13 11:07:00,19.2,0.9,28.70,West,280,3.6,6.3,44,0.00,,---,0.00,VWS V14.00,2013-01-13 17:07:00,
2013-01-13 11:12:00,19.8,1.4,28.70,NNW,328,3.6,4.0,44,0.00,,---,0.00,VWS V14.00,2013-01-13 17:12:00,
2013-01-13 11:17:00,20.3,1.9,28.70,NW,317,4.0,4.9,44,0.00,,---,0.00,VWS V14.00,2013-01-13 17:17:00,
2013-01-13 11:22:00,20.5,1.5,28.67,NW,314,3.1,5.4,43,0.00,,---,0.00,VWS V14.00,2013-01-13 17:22:00,
2013-01-13 11:27:00,20.5,1.5,28.67,WNW,287,2.7,5.8,43,0.00,,---,0.00,VWS V14.00,2013-01-13 17:27:00,
2013-01-13 11:33:00,20.8,1.9,28.67,NW,307,3.6,5.4,43,0.00,,---,0.00,VWS V14.00,2013-01-13 17:33:00,
2013-01-13 11:38:00,21.0,2.0,28.67,WSW,250,8.3,8.3,43,0.00,,---,0.00,VWS V14.00,2013-01-13 17:38:00,
2013-01-13 11:43:00,21.2,2.2,28.67,NW,317,5.4,7.2,43,0.00,,---,0.00,VWS V14.00,2013-01-13 17:43:00,
2013-01-13 11:48:00,21.6,2.0,28.67,NW,309,3.6,8.1,42,0.00,,---,0.00,VWS V14.00,2013-01-13 17:48:00,
2013-01-13 11:53:00,21.6,2.0,28.67,West,276,3.1,5.8,42,0.00,,---,0.00,VWS V14.00,2013-01-13 17:53:00,
2013-01-13 11:58:00,21.9,2.4,28.67,NW,322,6.3,6.3,42,0.00,,---,0.00,VWS V14.00,2013-01-13 17:58:00,
2013-01-13 12:03:00,22.1,2.5,28.67,WSW,256,3.6,5.8,42,0.00,,---,0.00,VWS V14.00,2013-01-13 18:03:00,
2013-01-13 12:08:00,22.6,3.5,28.67,West,259,5.4,5.4,43,0.00,,---,0.00,VWS V14.00,2013-01-13 18:08:00,
2013-01-13 12:13:00,22.8,3.2,28.67,WNW,301,2.7,5.8,42,0.00,,---,0.00,VWS V14.00,2013-01-13 18:13:00,
2013-01-13 12:18:00,23.0,3.3,28.67,WNW,292,4.0,5.8,42,0.00,,---,0.00,VWS V14.00,2013-01-13 18:18:00,
2013-01-13 12:23:00,23.4,3.7,28.64,WSW,240,7.2,7.6,42,0.00,,---,0.00,VWS V14.00,2013-01-13 18:23:00,
2013-01-13 12:29:00,23.7,4.0,28.64,NW,318,5.4,5.4,42,0.00,,---,0.00,VWS V14.00,2013-01-13 18:29:00,
2013-01-13 12:34:00,24.1,4.3,28.64,NW,317,4.0,5.4,42,0.00,,---,0.00,VWS V14.00,2013-01-13 18:34:00,
2013-01-13 12:39:00,24.1,4.3,28.64,NW,313,4.9,5.4,42,0.00,,---,0.00,VWS V14.00,2013-01-13 18:39:00,
2013-01-13 12:44:00,24.1,4.3,28.64,NW,311,4.9,5.8,42,0.00,,---,0.00,VWS V14.00,2013-01-13 18:44:00,
2013-01-13 12:49:00,24.4,4.7,28.64,WSW,258,2.7,3.6,42,0.00,,---,0.00,VWS V14.00,2013-01-13 18:49:00,
2013-01-13 12:54:00,24.6,4.8,28.64,NW,313,4.5,8.3,42,0.00,,---,0.00,VWS V14.00,2013-01-13 18:54:00,
2013-01-13 12:59:00,24.6,4.8,28.64,West,280,3.6,3.6,42,0.00,,---,0.00,VWS V14.00,2013-01-13 18:59:00,
2013-01-13 13:04:00,25.0,5.1,28.64,NNW,339,3.1,5.4,42,0.00,,---,0.00,VWS V14.00,2013-01-13 19:04:00,
2013-01-13 13:09:00,25.2,5.3,28.61,NW,322,4.0,5.4,42,0.00,,---,0.00,VWS V14.00,2013-01-13 19:09:00,
2013-01-13 13:14:00,25.3,5.5,28.61,WNW,299,3.1,5.4,42,0.00,,---,0.00,VWS V14.00,2013-01-13 19:14:00,
2013-01-13 13:19:00,25.9,5.4,28.61,WNW,290,3.1,5.4,41,0.00,,---,0.00,VWS V14.00,2013-01-13 19:19:00,
2013-01-13 13:24:00,25.9,5.4,28.61,NW,320,5.8,6.3,41,0.00,,---,0.00,VWS V14.00,2013-01-13 19:24:00,
2013-01-13 13:29:00,25.9,5.4,28.61,NW,307,3.6,3.6,41,0.00,,---,0.00,VWS V14.00,2013-01-13 19:29:00,
2013-01-13 13:35:00,26.1,5.6,28.61,WSW,249,6.3,8.1,41,0.00,,---,0.00,VWS V14.00,2013-01-13 19:35:00,
2013-01-13 13:40:00,26.1,5.6,28.61,NNW,329,4.0,4.0,41,0.00,,---,0.00,VWS V14.00,2013-01-13 19:40:00,
2013-01-13 13:45:00,26.4,5.9,28.61,NNW,331,4.0,4.0,41,0.00,,---,0.00,VWS V14.00,2013-01-13 19:45:00,
2013-01-13 13:50:00,26.8,5.7,28.61,WSW,249,8.7,9.6,40,0.00,,---,0.00,VWS V14.00,2013-01-13 19:50:00,
2013-01-13 13:55:00,26.6,5.6,28.61,WSW,249,6.3,6.3,40,0.00,,---,0.00,VWS V14.00,2013-01-13 19:55:00,
2013-01-13 14:00:00,26.8,5.7,28.61,WNW,300,3.6,3.6,40,0.00,,---,0.00,VWS V14.00,2013-01-13 20:00:00,
2013-01-13 14:05:00,27.0,5.9,28.61,West,274,5.4,6.3,40,0.00,,---,0.00,VWS V14.00,2013-01-13 20:05:00,
2013-01-13 14:10:00,27.1,5.5,28.61,WNW,299,3.1,6.3,39,0.00,,---,0.00,VWS V14.00,2013-01-13 20:10:00,
2013-01-13 14:15:00,27.0,4.8,28.61,WNW,302,6.3,8.7,38,0.00,,---,0.00,VWS V14.00,2013-01-13 20:15:00,
2013-01-13 14:20:00,26.8,5.2,28.61,NW,321,8.7,8.7,39,0.00,,---,0.00,VWS V14.00,2013-01-13 20:20:00,
2013-01-13 14:26:00,27.0,4.8,28.61,NNW,328,2.7,6.3,38,0.00,,---,0.00,VWS V14.00,2013-01-13 20:26:00,
2013-01-13 14:31:00,27.0,4.8,28.61,WNW,295,5.8,8.1,38,0.00,,---,0.00,VWS V14.00,2013-01-13 20:31:00,
2013-01-13 14:36:00,27.0,5.3,28.61,West,280,4.0,4.9,39,0.00,,---,0.00,VWS V14.00,2013-01-13 20:36:00,
2013-01-13 14:41:00,27.3,5.6,28.61,North,350,4.0,6.3,39,0.00,,---,0.00,VWS V14.00,2013-01-13 20:41:00,
2013-01-13 14:46:00,27.5,5.2,28.61,West,278,7.6,7.6,38,0.00,,---,0.00,VWS V14.00,2013-01-13 20:46:00,
2013-01-13 14:51:00,27.5,5.2,28.61,NW,308,5.4,5.8,38,0.00,,---,0.00,VWS V14.00,2013-01-13 20:51:00,
2013-01-13 14:56:00,27.9,6.1,28.61,NW,317,3.6,4.9,39,0.00,,---,0.00,VWS V14.00,2013-01-13 20:56:00,
2013-01-13 15:01:00,28.0,6.3,28.61,NW,322,6.3,6.3,39,0.00,,---,0.00,VWS V14.00,2013-01-13 21:01:00,
2013-01-13 15:07:00,28.0,6.3,28.64,WSW,247,4.0,7.6,39,0.00,,---,0.00,VWS V14.00,2013-01-13 21:07:00,
2013-01-13 15:12:00,28.0,6.3,28.64,West,280,4.0,7.2,39,0.00,,---,0.00,VWS V14.00,2013-01-13 21:12:00,
2013-01-13 15:17:00,28.2,6.4,28.64,WNW,290,4.0,6.3,39,0.00,,---,0.00,VWS V14.00,2013-01-13 21:17:00,
2013-01-13 15:22:00,28.2,6.4,28.64,West,277,8.7,8.7,39,0.00,,---,0.00,VWS V14.00,2013-01-13 21:22:00,
2013-01-13 15:27:00,28.2,5.9,28.64,NW,310,4.5,5.8,38,0.00,,---,0.00,VWS V14.00,2013-01-13 21:27:00,
2013-01-13 15:32:00,27.9,5.6,28.64,WNW,286,4.0,4.0,38,0.00,,---,0.00,VWS V14.00,2013-01-13 21:32:00,
2013-01-13 15:37:00,27.9,5.6,28.64,WNW,297,4.0,5.8,38,0.00,,---,0.00,VWS V14.00,2013-01-13 21:37:00,
2013-01-13 15:42:00,27.9,5.6,28.64,WNW,286,4.0,5.8,38,0.00,,---,0.00,VWS V14.00,2013-01-13 21:42:00,
2013-01-13 15:47:00,28.0,5.7,28.64,WNW,282,5.4,5.8,38,0.00,,---,0.00,VWS V14.00,2013-01-13 21:47:00,
2013-01-13 15:53:00,28.0,5.7,28.64,NW,319,3.6,6.3,38,0.00,,---,0.00,VWS V14.00,2013-01-13 21:53:00,
2013-01-13 15:58:00,27.9,5.6,28.64,WNW,296,4.9,8.1,38,0.00,,---,0.00,VWS V14.00,2013-01-13 21:58:00,
2013-01-13 16:03:00,27.9,5.6,28.64,NW,320,4.0,6.3,38,0.00,,---,0.00,VWS V14.00,2013-01-13 22:03:00,
2013-01-13 16:08:00,27.5,5.2,28.64,NW,305,6.3,6.3,38,0.00,,---,0.00,VWS V14.00,2013-01-13 22:08:00,
2013-01-13 16:13:00,27.1,4.9,28.64,West,275,2.7,2.7,38,0.00,,---,0.00,VWS V14.00,2013-01-13 22:13:00,
2013-01-13 16:18:00,26.8,4.6,28.64,NW,320,8.7,8.7,38,0.00,,---,0.00,VWS V14.00,2013-01-13 22:18:00,
2013-01-13 16:23:00,26.4,4.8,28.64,NW,306,3.6,4.0,39,0.00,,---,0.00,VWS V14.00,2013-01-13 22:23:00,
2013-01-13 16:28:00,26.4,4.8,28.64,NW,306,3.6,4.9,39,0.00,,---,0.00,VWS V14.00,2013-01-13 22:28:00,
2013-01-13 16:33:00,26.4,4.8,28.64,West,263,5.4,9.6,39,0.00,,---,0.00,VWS V14.00,2013-01-13 22:33:00,
2013-01-13 16:39:00,26.2,4.7,28.64,WNW,301,3.1,8.1,39,0.00,,---,0.00,VWS V14.00,2013-01-13 22:39:00,
2013-01-13 16:44:00,26.1,4.5,28.64,WNW,299,3.1,4.9,39,0.00,,---,0.00,VWS V14.00,2013-01-13 22:44:00,
2013-01-13 16:49:00,26.1,4.5,28.64,WNW,301,3.6,7.6,39,0.00,,---,0.00,VWS V14.00,2013-01-13 22:49:00,
2013-01-13 16:54:00,25.9,4.3,28.64,NW,314,3.6,4.0,39,0.00,,---,0.00,VWS V14.00,2013-01-13 22:54:00,
2013-01-13 16:59:00,25.7,4.2,28.64,WNW,303,3.6,3.6,39,0.00,,---,0.00,VWS V14.00,2013-01-13 22:59:00,
2013-01-13 17:04:00,25.5,4.6,28.64,NW,321,4.0,5.8,40,0.00,,---,0.00,VWS V14.00,2013-01-13 23:04:00,
2013-01-13 17:09:00,25.3,4.4,28.67,NW,307,0.0,2.7,40,0.00,,---,0.00,VWS V14.00,2013-01-13 23:09:00,
2013-01-13 17:14:00,25.3,4.4,28.67,NW,326,4.0,4.0,40,0.00,,---,0.00,VWS V14.00,2013-01-13 23:14:00,
2013-01-13 17:19:00,25.2,4.8,28.67,WNW,289,3.1,4.9,41,0.00,,---,0.00,VWS V14.00,2013-01-13 23:19:00,
2013-01-13 17:24:00,24.8,4.4,28.64,NW,306,2.2,3.1,41,0.00,,---,0.00,VWS V14.00,2013-01-13 23:24:00,
2013-01-13 17:30:00,24.8,5.0,28.64,West,278,0.0,4.9,42,0.00,,---,0.00,VWS V14.00,2013-01-13 23:30:00,
2013-01-13 17:35:00,24.4,4.7,28.64,West,265,0.0,0.0,42,0.00,,---,0.00,VWS V14.00,2013-01-13 23:35:00,
2013-01-13 17:40:00,24.4,4.7,28.67,West,281,2.7,2.7,42,0.00,,---,0.00,VWS V14.00,2013-01-13 23:40:00,
2013-01-13 17:45:00,24.1,4.3,28.67,WNW,284,3.1,3.1,42,0.00,,---,0.00,VWS V14.00,2013-01-13 23:45:00,
2013-01-13 17:50:00,23.9,4.2,28.67,NW,305,2.7,3.6,42,0.00,,---,0.00,VWS V14.00,2013-01-13 23:50:00,
2013-01-13 17:55:00,23.7,4.0,28.67,NW,305,0.0,2.2,42,0.00,,---,0.00,VWS V14.00,2013-01-13 23:55:00,
2013-01-13 18:00:00,23.5,3.8,28.67,NW,304,3.1,3.6,42,0.00,,---,0.00,VWS V14.00,2013-01-14 00:00:00,
2013-01-13 18:05:00,23.4,4.2,28.67,NW,316,4.9,4.9,43,0.00,,---,0.00,VWS V14.00,2013-01-14 00:05:00,
2013-01-13 18:11:00,23.2,4.0,28.67,NW,305,3.6,4.0,43,0.00,,---,0.00,VWS V14.00,2013-01-14 00:11:00,
2013-01-13 18:16:00,23.0,4.3,28.67,NW,324,4.0,4.9,44,0.00,,---,0.00,VWS V14.00,2013-01-14 00:16:00,
2013-01-13 18:21:00,22.8,4.2,28.67,NW,322,2.7,3.1,44,0.00,,---,0.00,VWS V14.00,2013-01-14 00:21:00,
2013-01-13 18:26:00,22.5,3.9,28.67,NW,305,3.6,3.6,44,0.00,,---,0.00,VWS V14.00,2013-01-14 00:26:00,
2013-01-13 18:31:00,22.3,4.2,28.67,NW,306,4.9,4.9,45,0.00,,---,0.00,VWS V14.00,2013-01-14 00:31:00,
2013-01-13 18:36:00,22.1,4.0,28.67,NW,306,3.1,3.1,45,0.00,,---,0.00,VWS V14.00,2013-01-14 00:36:00,
2013-01-13 18:41:00,21.9,3.8,28.67,NW,306,2.7,3.6,45,0.00,,---,0.00,VWS V14.00,2013-01-14 00:41:00,
2013-01-13 18:46:00,21.7,3.7,28.67,NW,306,3.1,3.1,45,0.00,,---,0.00,VWS V14.00,2013-01-14 00:46:00,
2013-01-13 18:51:00,21.6,3.5,28.67,NW,306,0.0,0.0,45,0.00,,---,0.00,VWS V14.00,2013-01-14 00:51:00,
2013-01-13 18:57:00,21.2,3.7,28.67,NW,306,0.0,0.0,46,0.00,,---,0.00,VWS V14.00,2013-01-14 00:57:00,
2013-01-13 19:02:00,21.2,3.7,28.67,NW,306,0.0,0.0,46,0.00,,---,0.00,VWS V14.00,2013-01-14 01:02:00,
2013-01-13 19:07:00,20.8,3.3,28.67,NW,305,0.0,0.0,46,0.00,,---,0.00,VWS V14.00,2013-01-14 01:07:00,
2013-01-13 20:26:00,17.4,2.0,28.70,NW,305,0.0,0.0,50,0.00,,---,0.00,VWS V14.00,2013-01-14 02:26:00,
2013-01-13 20:31:00,17.1,1.6,28.70,NW,305,0.0,0.0,50,0.00,,---,0.00,VWS V14.00,2013-01-14 02:31:00,
2013-01-13 20:36:00,16.7,1.3,28.70,NW,305,0.0,0.0,50,0.00,,---,0.00,VWS V14.00,2013-01-14 02:36:00,
2013-01-13 20:41:00,16.5,1.1,28.70,NW,305,0.0,0.0,50,0.00,,---,0.00,VWS V14.00,2013-01-14 02:41:00,
2013-01-13 20:46:00,16.5,1.6,28.70,NW,305,0.0,0.0,51,0.00,,---,0.00,VWS V14.00,2013-01-14 02:46:00,
2013-01-13 20:52:00,16.5,2.0,28.70,NW,305,0.0,0.0,52,0.00,,---,0.00,VWS V14.00,2013-01-14 02:52:00,
2013-01-13 20:57:00,16.3,1.8,28.70,NW,305,0.0,0.0,52,0.00,,---,0.00,VWS V14.00,2013-01-14 02:57:00,
2013-01-13 21:02:00,16.2,2.0,28.70,NW,305,0.0,0.0,53,0.00,,---,0.00,VWS V14.00,2013-01-14 03:02:00,
2013-01-13 21:07:00,16.2,2.0,28.70,NW,305,0.0,0.0,53,0.00,,---,0.00,VWS V14.00,2013-01-14 03:07:00,
2013-01-13 21:12:00,16.2,2.5,28.70,NW,305,0.0,0.0,54,0.00,,---,0.00,VWS V14.00,2013-01-14 03:12:00,
2013-01-13 21:17:00,16.0,2.3,28.70,NW,305,0.0,0.0,54,0.00,,---,0.00,VWS V14.00,2013-01-14 03:17:00,
2013-01-13 21:22:00,16.0,2.3,28.70,NW,305,0.0,0.0,54,0.00,,---,0.00,VWS V14.00,2013-01-14 03:22:00,
2013-01-13 21:27:00,15.8,2.5,28.70,NW,305,0.0,0.0,55,0.00,,---,0.00,VWS V14.00,2013-01-14 03:27:00,
2013-01-13 21:32:00,15.6,2.3,28.70,NW,305,0.0,0.0,55,0.00,,---,0.00,VWS V14.00,2013-01-14 03:32:00,
2013-01-13 21:37:00,15.4,2.2,28.73,NW,305,0.0,0.0,55,0.00,,---,0.00,VWS V14.00,2013-01-14 03:37:00,
2013-01-13 21:43:00,15.3,2.0,28.73,NW,305,0.0,0.0,55,0.00,,---,0.00,VWS V14.00,2013-01-14 03:43:00,
2013-01-13 21:48:00,15.1,1.8,28.73,NW,305,0.0,0.0,55,0.00,,---,0.00,VWS V14.00,2013-01-14 03:48:00,
2013-01-13 21:53:00,14.9,1.7,28.73,NW,305,0.0,0.0,55,0.00,,---,0.00,VWS V14.00,2013-01-14 03:53:00,
2013-01-13 21:58:00,14.7,1.5,28.73,NW,305,0.0,0.0,55,0.00,,---,0.00,VWS V14.00,2013-01-14 03:58:00,
2013-01-13 22:03:00,14.5,1.3,28.73,NW,305,0.0,0.0,55,0.00,,---,0.00,VWS V14.00,2013-01-14 04:03:00,
2013-01-13 22:08:00,14.4,1.5,28.73,NW,305,0.0,0.0,56,0.00,,---,0.00,VWS V14.00,2013-01-14 04:08:00,
2013-01-13 22:13:00,14.2,1.4,28.73,NW,305,0.0,0.0,56,0.00,,---,0.00,VWS V14.00,2013-01-14 04:13:00,
2013-01-13 22:18:00,14.2,1.4,28.73,NW,305,0.0,0.0,56,0.00,,---,0.00,VWS V14.00,2013-01-14 04:18:00,
2013-01-13 22:23:00,13.8,1.4,28.73,NW,305,0.0,0.0,57,0.00,,---,0.00,VWS V14.00,2013-01-14 04:23:00,
2013-01-13 22:28:00,13.8,1.4,28.73,NW,305,0.0,0.0,57,0.00,,---,0.00,VWS V14.00,2013-01-14 04:28:00,
2013-01-13 22:33:00,13.8,1.4,28.73,NW,305,0.0,0.0,57,0.00,,---,0.00,VWS V14.00,2013-01-14 04:33:00,
2013-01-13 22:38:00,13.8,1.4,28.73,NW,305,0.0,0.0,57,0.00,,---,0.00,VWS V14.00,2013-01-14 04:38:00,
2013-01-13 22:44:00,13.6,1.2,28.73,NW,305,0.0,0.0,57,0.00,,---,0.00,VWS V14.00,2013-01-14 04:44:00,
2013-01-13 22:49:00,13.6,1.2,28.73,NW,305,0.0,0.0,57,0.00,,---,0.00,VWS V14.00,2013-01-14 04:49:00,
2013-01-13 22:54:00,13.5,1.1,28.73,NW,305,0.0,0.0,57,0.00,,---,0.00,VWS V14.00,2013-01-14 04:54:00,
2013-01-13 22:59:00,13.5,1.1,28.73,NW,305,0.0,0.0,57,0.00,,---,0.00,VWS V14.00,2013-01-14 04:59:00,
2013-01-13 23:01:00,13.6,1.2,28.73,NW,305,0.0,0.0,57,0.00,,---,0.00,VWS V14.00,2013-01-14 05:01:00,
2013-01-13 23:02:00,13.6,1.2,28.73,NW,305,0.0,0.0,57,0.00,,---,0.00,VWS V14.00,2013-01-14 05:02:00,
2013-01-13 23:07:00,13.6,1.2,28.73,NW,305,0.0,0.0,57,0.00,,---,0.00,VWS V14.00,2013-01-14 05:07:00,
2013-01-13 23:12:00,13.8,1.4,28.73,NW,305,0.0,0.0,57,0.00,,---,0.00,VWS V14.00,2013-01-14 05:12:00,
2013-01-13 23:17:00,13.8,1.4,28.73,NW,305,0.0,0.0,57,0.00,,---,0.00,VWS V14.00,2013-01-14 05:17:00,
2013-01-13 23:22:00,14.0,3.0,28.73,NW,305,0.0,0.0,61,0.00,,---,0.00,VWS V14.00,2013-01-14 05:22:00,
2013-01-13 23:27:00,14.2,3.2,28.73,NW,305,0.0,0.0,61,0.00,,---,0.00,VWS V14.00,2013-01-14 05:27:00,
2013-01-13 23:33:00,14.2,3.2,28.73,NW,305,0.0,0.0,61,0.00,,---,0.00,VWS V14.00,2013-01-14 05:33:00,
2013-01-13 23:38:00,14.2,3.6,28.73,NW,305,0.0,0.0,62,0.00,,---,0.00,VWS V14.00,2013-01-14 05:38:00,
2013-01-13 23:43:00,14.4,3.7,28.73,NW,305,0.0,0.0,62,0.00,,---,0.00,VWS V14.00,2013-01-14 05:43:00,
2013-01-13 23:48:00,14.4,3.7,28.73,NW,305,0.0,0.0,62,0.00,,---,0.00,VWS V14.00,2013-01-14 05:48:00,
2013-01-13 23:53:00,14.4,3.7,28.73,NW,305,0.0,0.0,62,0.00,,---,0.00,VWS V14.00,2013-01-14 05:53:00,
2013-01-13 23:58:00,14.4,3.7,28.73,NW,305,0.0,0.0,62,0.00,,---,0.00,VWS V14.00,2013-01-14 05:58:00,